Overview Statistics Trail Chart Weather Telemetry Raw packets
 

This is the latest recevied weather packets stored in our database for station/object K1WJY. If no packets are shown the sender has not sent any weather packets the latest 10 day(s).

<< 107 108 109 110 111 112 113 >>
Time Temp. Humidity Pressure Rain* Wind** Luminosity Snow
1787742034 15.56° C 99% 1018 hPa 0 mm - 43 W/m² -
1787741730 15° C 99% 1017.9 hPa 0 mm - 31 W/m² -
1787741426 13.89° C 99% 1017.6 hPa 0 mm - 34 W/m² -
1787741125 13.89° C 99% 1017.6 hPa 0 mm - 26 W/m² -
1787740824 13.33° C 99% 1017.5 hPa 0 mm - 24 W/m² -
1787740523 13.33° C 99% 1017.4 hPa 0 mm - 22 W/m² -
1787740219 13.33° C 99% 1017.4 hPa 0 mm - 19 W/m² -
1787739914 13.33° C 99% 1017.4 hPa 0 mm - 16 W/m² -
1787739610 13.33° C 99% 1017.4 hPa 0 mm - 15 W/m² -
1787739308 13.33° C 99% 1017.2 hPa 0 mm - 12 W/m² -
1787739001 13.33° C 99% 1017.5 hPa 0 mm - 10 W/m² -
1787738696 13.33° C 99% 1017.2 hPa 0 mm - 7 W/m² -
1787738396 13.33° C 99% 1017.2 hPa 0 mm - 5 W/m² -
1787738095 13.33° C 99% 1017.2 hPa 0 mm - 3 W/m² -
1787737795 13.33° C 99% 1017.1 hPa 0 mm - 1 W/m² -
1787737490 13.33° C 99% 1017 hPa 0 mm - 0 W/m² -
1787737186 13.33° C 99% 1017.2 hPa 0 mm - 0 W/m² -
1787736882 13.33° C 99% 1017.3 hPa 0 mm - 0 W/m² -
1787736577 13.33° C 99% 1017 hPa 0 mm - 0 W/m² -
1787736272 13.33° C 99% 1017 hPa 0 mm - 0 W/m² -
1787735970 13.33° C 99% 1017 hPa 0 mm - 0 W/m² -
1787735665 13.33° C 99% 1017 hPa 0 mm - 0 W/m² -
1787735060 13.89° C 99% 1016.7 hPa 0 mm - 0 W/m² -
1787734760 13.89° C 99% 1016.7 hPa 0 mm - 0 W/m² -
1787734455 13.89° C 99% 1016.8 hPa 0 mm - 0 W/m² -

* Rain latest hour (hover to see other rain measurements)
** Current wind speed in m/s (hover to see current wind gust speed)